Vorticity
7 5 5 7 7 4 9 7 8 9 12 12 13 6 6 7 7 8 7 7 14 12 5 8 6 14 15 10 14 12 13 17 12 12 17 15 10 9 13 9 2 8 6 -1 3
10 11 7 4 4 6 11 8 7 8 10 13 9 12 11 9 9 8 14 10 10 11 16 16 8 13 16 11 9 11 6 5 2 7 9 10 10 14 12 13 17 10 6 5 -4
15 16 17 15 12 13 12 11 13 10 9 10 11 10 5 5 5 8 6 11 13 13 15 12 10 17 10 11 10 3 5 9 17 8 9 10 11 3 11 9 10 11 13 11 4
15 13 12 14 16 13 15 15 15 13 12 10 6 6 13 15 10 15 11 13 13 14 10 8 9 11 13 7 7 13 16 20 17 13 15 12 8 12 3 13 5 7 9 9 12
17 15 15 10 13 17 19 19 14 13 10 9 8 15 9 1 7 7 15 15 12 4 6 20 8 15 4 11 13 36 40 41 35 30 35 34 34 35 60 29 27 23 6 7 8
20 19 20 16 12 20 20 17 18 20 21 10 14 9 -1 10 14 13 15 9 8 8 15 0 21 5 4 13 6 10 8 7 6 2 12 30 14 45 16 39 59 40 40 28 10
-4 3 9 43 25 20 16 19 16 11 8 12 10 1 12 14 12 14 14 3 12 11 4 20 7 6 11 9 2 1 -0 3 14 11 8 -1 -2 3 -0 2 5 23 75 48 39
34 50 47 33 15 19 19 22 18 16 13 16 4 9 10 7 18 13 4 13 8 9 20 9 5 5 17 1 -4 5 5 4 4 9 15 2 9 5 -2 0 6 -4 5 21 82
16 26 20 47 24 5 21 22 15 15 16 9 7 5 8 21 10 3 8 8 8 15 18 2 3 7 8 1 4 4 -1 -2 5 7 17 19 12 10 8 18 18 13 15 15 3
31 -11 36 32 11 28 23 21 18 13 17 7 5 3 23 9 5 10 12 10 19 22 7 6 4 3 14 3 3 5 16 2 -4 -6 -3 1 4 9 10 7 9 13 18 21 13
11 34 24 22 9 45 22 6 17 21 6 6 3 18 11 3 8 15 8 16 14 14 13 17 13 14 17 13 12 9 3 8 9 2 0 -2 -1 15 5 22 30 14 22 6 4
39 42 24 20 35 23 13 3 21 14 8 2 11 10 5 9 11 15 13 4 -1 4 3 4 3 4 7 9 10 12 16 10 17 8 0 4 5 -0 -4 26 19 10 23 13 22
21 18 11 27 23 20 27 27 16 6 0 9 11 8 7 12 13 9 7 8 5 7 6 9 10 8 9 10 11 11 15 10 17 12 5 -1 9 1 23 23 16 36 3 19 12
43 43 47 22 23 52 23 11 5 -1 9 11 8 10 11 8 8 5 5 5 6 4 6 12 9 18 19 17 15 15 16 22 15 15 10 7 6 2 20 2 15 18 -2 2 7
13 18 24 21 30 8 5 11 0 10 7 5 10 10 12 7 6 3 -3 2 4 5 11 10 23 21 24 31 31 30 30 24 18 19 15 10 4 14 1 16 9 -10 9 3 9
18 14 21 17 13 11 7 7 13 8 11 11 15 8 6 6 3 3 0 7 6 4 11 16 30 37 35 35 34 30 24 18 21 18 10 9 6 11 3 34 -24 1 10 5 -10
29 19 17 16 4 5 15 13 9 17 4 12 8 5 8 5 3 4 1 2 6 5 11 21 37 35 34 30 35 33 34 22 22 -0 13 6 8 11 12 19 18 8 -2 19 -5
13 13 19 21 18 15 8 6 14 10 6 5 5 6 5 4 3 6 6 1 3 6 13 24 34 26 -5 0 11 15 26 24 6 8 8 1 14 17 8 13 -26 51 7 1 -17
7 8 11 9 10 8 10 13 6 4 5 5 3 5 4 5 5 7 3 5 4 0 12 11 34 17 2 10 17 6 38 -7 28 20 7 1 10 10 6 10 2 1 23 -28 25
2 4 8 14 13 3 8 3 2 4 3 4 4 6 3 5 6 5 5 3 3 6 -2 6 16 49 11 3 0 13 11 26 23 24 14 5 -1 3 18 27 6 -2 -25 38 25
-0 13 7 1 -1 3 7 3 3 3 3 4 4 6 4 4 5 5 5 4 3 5 2 0 15 16 29 39 -0 8 1 3 -1 8 39 13 7 -5 1 9 21 1 -8 12 -14
1 10 -0 0 1 4 4 4 1 2 4 7 6 3 3 4 5 4 3 3 4 1 5 1 1 5 12 26 20 27 14 13 17 9 10 6 34 25 5 5 7 19 9 8 27
4 8 3 2 3 4 2 1 1 3 6 5 5 6 2 5 4 4 3 5 -0 2 4 2 1 -4 7 9 16 40 37 29 15 5 6 7 -2 6 18 14 6 7 -2 -5 4
-0 6 4 -2 1 2 -1 0 3 3 5 6 6 4 4 4 5 5 2 4 3 -0 4 2 4 6 2 7 11 7 15 27 43 34 29 28 12 12 5 8 7 19 2 -6 6
1 8 -2 1 -1 4 0 3 2 3 5 5 6 6 6 6 5 5 4 4 4 2 1 4 4 6 5 9 8 3 4 8 11 18 25 34 43 36 25 10 11 8 18 14 14
20 -2 8 6 1 -1 3 1 3 4 6 5 5 6 8 6 7 6 4 6 6 3 2 5 5 1 2 2 6 9 6 5 5 3 6 13 18 25 37 42 35 15 5 5 15
8 17 17 2 8 3 2 3 3 4 5 4 5 5 6 7 8 7 7 6 4 4 4 2 2 3 2 2 1 3 7 9 7 5 8 4 10 17 20 27 38 42 40 25 4
Height
5686 5680 5676 5673 5672 5671 5670 5669 5673 5675 5677 5680 5683 5686 5688 5691 5692 5694 5695 5698 5697 5697 5698 5699 5701 5700 5700 5701 5701 5700 5702 5703 5705 5706 5709 5699 5707 5706 5708 5715 5723 5729 5735 5748 5753
5668 5662 5658 5656 5655 5654 5655 5656 5658 5663 5667 5671 5673 5678 5681 5684 5686 5686 5689 5689 5690 5689 5690 5691 5692 5692 5693 5692 5693 5692 5694 5694 5694 5695 5696 5689 5696 5692 5693 5701 5709 5717 5718 5727 5742
5648 5642 5639 5636 5636 5638 5640 5642 5646 5650 5655 5661 5665 5669 5673 5676 5679 5681 5681 5682 5683 5682 5682 5683 5684 5685 5685 5685 5685 5685 5684 5685 5679 5680 5680 5680 5679 5679 5683 5694 5691 5701 5702 5707 5716
5624 5618 5618 5614 5614 5619 5623 5628 5632 5638 5644 5651 5655 5661 5665 5670 5675 5674 5675 5675 5676 5676 5676 5675 5676 5678 5678 5679 5678 5674 5670 5669 5665 5666 5666 5662 5666 5666 5666 5678 5673 5684 5687 5691 5700
5594 5592 5594 5595 5596 5600 5607 5614 5620 5628 5635 5642 5648 5655 5660 5665 5668 5668 5669 5670 5671 5670 5670 5669 5671 5671 5672 5671 5669 5665 5659 5658 5656 5655 5655 5653 5652 5648 5656 5651 5656 5663 5671 5678 5682
5575 5573 5574 5577 5580 5584 5593 5602 5610 5619 5627 5635 5643 5650 5655 5660 5661 5662 5664 5667 5666 5664 5664 5665 5666 5667 5665 5664 5664 5662 5660 5656 5654 5652 5650 5648 5647 5645 5643 5642 5643 5644 5654 5655 5664
5553 5553 5556 5559 5566 5572 5582 5592 5602 5612 5621 5629 5638 5645 5651 5656 5657 5659 5662 5661 5660 5659 5661 5661 5661 5660 5659 5659 5659 5658 5656 5653 5651 5649 5647 5645 5644 5642 5640 5638 5637 5635 5638 5638 5646
5537 5535 5539 5546 5554 5562 5574 5585 5596 5606 5616 5626 5635 5642 5648 5651 5655 5657 5658 5657 5656 5657 5657 5657 5657 5656 5655 5655 5655 5654 5652 5650 5648 5645 5644 5643 5640 5638 5635 5633 5633 5631 5630 5631 5629
5531 5528 5529 5533 5543 5556 5569 5580 5592 5603 5615 5624 5634 5641 5646 5650 5653 5655 5655 5655 5656 5655 5654 5654 5652 5652 5651 5650 5651 5650 5650 5648 5646 5644 5642 5640 5638 5634 5632 5630 5629 5624 5622 5623 5624
5527 5526 5524 5528 5537 5550 5566 5578 5590 5603 5616 5625 5634 5642 5645 5650 5652 5654 5654 5655 5654 5654 5653 5651 5649 5647 5646 5644 5644 5642 5643 5644 5643 5642 5639 5638 5636 5632 5627 5623 5622 5618 5615 5612 5613
5523 5520 5523 5528 5536 5549 5566 5579 5593 5606 5617 5627 5635 5640 5645 5649 5652 5654 5655 5654 5654 5653 5651 5648 5646 5642 5640 5637 5635 5634 5634 5636 5637 5638 5638 5635 5632 5629 5624 5620 5617 5613 5610 5609 5606
5525 5523 5527 5532 5540 5552 5567 5582 5595 5609 5620 5629 5635 5642 5647 5651 5654 5655 5656 5657 5656 5654 5650 5646 5641 5637 5633 5630 5627 5626 5626 5629 5631 5632 5634 5632 5631 5627 5621 5616 5613 5609 5609 5606 5603
5539 5538 5540 5543 5550 5561 5574 5590 5603 5614 5623 5632 5639 5644 5650 5653 5655 5657 5659 5659 5657 5653 5647 5642 5637 5630 5625 5620 5617 5615 5616 5618 5624 5625 5628 5629 5628 5624 5620 5617 5612 5611 5606 5604 5603
5553 5552 5554 5560 5569 5577 5588 5601 5612 5621 5630 5638 5643 5649 5653 5656 5659 5660 5661 5661 5657 5652 5644 5637 5630 5622 5614 5608 5605 5605 5603 5611 5615 5620 5624 5626 5625 5622 5620 5617 5614 5612 5609 5606 5607
5580 5577 5577 5581 5589 5596 5605 5612 5621 5629 5636 5645 5649 5653 5656 5661 5664 5664 5664 5662 5658 5651 5642 5631 5619 5608 5600 5596 5593 5593 5596 5602 5608 5614 5620 5622 5623 5621 5620 5618 5615 5615 5612 5608 5613
5602 5601 5601 5601 5608 5614 5622 5628 5633 5641 5644 5651 5656 5659 5663 5666 5667 5667 5666 5663 5658 5650 5638 5626 5612 5602 5594 5589 5587 5588 5591 5597 5604 5612 5617 5619 5620 5620 5619 5618 5617 5612 5615 5616 5616
5625 5621 5622 5623 5626 5631 5635 5641 5648 5651 5655 5660 5663 5666 5669 5670 5671 5671 5669 5665 5659 5655 5641 5629 5613 5602 5597 5594 5592 5592 5594 5598 5606 5612 5615 5617 5619 5620 5621 5620 5621 5619 5620 5617 5621
5648 5644 5644 5645 5646 5649 5652 5657 5662 5663 5666 5668 5671 5674 5675 5676 5676 5675 5672 5669 5664 5658 5649 5635 5621 5613 5607 5605 5602 5600 5601 5604 5608 5611 5615 5617 5619 5621 5622 5621 5622 5619 5622 5620 5624
5669 5667 5664 5664 5664 5666 5670 5672 5673 5674 5676 5679 5680 5681 5680 5681 5681 5679 5676 5673 5668 5661 5654 5642 5630 5621 5616 5614 5613 5610 5610 5613 5614 5616 5618 5620 5622 5622 5624 5624 5622 5622 5624 5624 5628
5681 5682 5681 5681 5681 5681 5684 5684 5683 5685 5686 5688 5688 5687 5686 5686 5685 5683 5680 5677 5673 5667 5660 5651 5640 5628 5624 5622 5621 5620 5621 5621 5621 5621 5621 5622 5623 5623 5624 5625 5625 5624 5624 5624 5628
5691 5695 5692 5691 5692 5695 5698 5697 5695 5695 5695 5695 5694 5693 5692 5691 5689 5687 5685 5682 5677 5672 5665 5658 5649 5640 5631 5629 5629 5627 5626 5626 5626 5625 5624 5625 5626 5625 5625 5626 5628 5627 5626 5626 5630
5705 5706 5702 5697 5699 5701 5705 5705 5704 5703 5702 5701 5700 5698 5697 5695 5694 5692 5690 5686 5682 5678 5673 5667 5659 5651 5648 5640 5634 5631 5631 5630 5629 5629 5627 5627 5628 5626 5625 5628 5629 5629 5628 5630 5631
5719 5717 5712 5709 5708 5707 5704 5704 5707 5708 5708 5707 5705 5703 5701 5700 5699 5696 5694 5691 5687 5683 5679 5675 5669 5664 5658 5653 5645 5636 5634 5632 5631 5631 5630 5630 5630 5627 5626 5625 5628 5630 5630 5631 5634
5723 5723 5719 5714 5715 5714 5712 5710 5709 5708 5707 5708 5708 5707 5705 5703 5702 5700 5698 5696 5692 5688 5684 5681 5676 5672 5667 5661 5655 5648 5643 5638 5634 5631 5630 5629 5628 5628 5627 5626 5625 5629 5632 5632 5633
5729 5727 5726 5726 5721 5718 5716 5715 5711 5709 5709 5708 5707 5708 5708 5706 5704 5703 5701 5700 5697 5693 5690 5686 5682 5678 5674 5668 5664 5659 5654 5650 5643 5637 5634 5631 5627 5626 5626 5626 5626 5626 5627 5630 5633
5736 5732 5728 5724 5726 5724 5721 5720 5718 5716 5712 5710 5709 5707 5706 5706 5706 5704 5703 5701 5700 5698 5695 5691 5688 5683 5680 5676 5671 5667 5662 5658 5653 5648 5642 5637 5632 5628 5625 5624 5623 5624 5625 5626 5628
5732 5729 5728 5730 5727 5723 5722 5717 5716 5717 5714 5712 5710 5709 5708 5706 5705 5704 5703 5702 5701 5700 5698 5695 5692 5689 5685 5682 5678 5675 5670 5666 5661 5656 5653 5647 5642 5636 5630 5625 5621 5620 5622 5624 5624